Stations météo

réclame
Mon MeteoGroup
Milano/Malpensa, Italie (16066): Température de l'air & dewpoint: 18.10.2017 06:00:00 - 24.10.2017 06:00:00 (CEST)Milano/Malpensa, Italie (16066): Vitesse du vent: 18.10.2017 06:00:00 - 24.10.2017 06:00:00 (CEST)Milano/Malpensa, Italie (16066): Direction du vent: 18.10.2017 06:00:00 - 24.10.2017 06:00:00 (CEST)Milano/Malpensa, Italie (16066): reduced air pressure: 18.10.2017 06:00:00 - 24.10.2017 06:00:00 (CEST)Milano/Malpensa, Italie (16066): visibility: 18.10.2017 06:00:00 - 24.10.2017 06:00:00 (CEST)Milano/Malpensa, Italie (16066): Quantités de précipitations: 18.10.2017 06:00:00 - 24.10.2017 06:00:00 (CEST)
Date & Time tt [°C] td [°C] ff [km/h] ff [knt] dd ppp [hPa] vv [km] rr [mm]
24.10.2017 06:00:00 6,0 -1,0 5 3 NNE - 10 -
24.10.2017 05:00:00 5,9 -0,2 8 4 NE 1019,8 10 0,0
24.10.2017 04:00:00 8,0 -1,0 4 2 N - 10 -
24.10.2017 03:00:00 7,0 -1,0 9 5 NE - 10 -
24.10.2017 02:00:00 14,8 -2,9 15 8 NW 1019,3 10 -
24.10.2017 01:00:00 15,0 -2,0 15 8 NE - 10 -
24.10.2017 00:00:00 16,0 -3,0 21 11 E - 10 -
23.10.2017 23:00:00 15,7 -3,6 18 10 NE 1019,0 10 0,0
23.10.2017 22:00:00 16,0 -3,0 24 13 N - 10 -
23.10.2017 21:00:00 16,0 -2,0 31 17 N - 10 -
23.10.2017 20:00:00 16,1 -2,2 26 14 N 1017,0 10 -
23.10.2017 19:00:00 17,0 -2,0 21 11 N - 10 -
23.10.2017 18:00:00 19,0 -2,0 22 12 N - 10 -
23.10.2017 17:00:00 20,7 -2,6 34 18 NNW 1015,5 10 0,0
23.10.2017 16:00:00 22,0 -3,0 35 19 N - 10 -
23.10.2017 15:00:00 22,0 -3,0 31 17 NNW - 10 -
23.10.2017 14:00:00 21,6 -2,3 29 16 N 1014,6 10 -
23.10.2017 13:00:00 21,0 -1,0 34 18 N - 10 -
23.10.2017 12:00:00 18,0 0,0 21 11 N - 10 -
23.10.2017 11:00:00 17,8 -0,2 16 9 NNW 1015,3 10 0,0
23.10.2017 10:00:00 16,0 -2,0 13 7 NW - 10 -
23.10.2017 09:00:00 12,0 -1,0 9 5 NW - 10 -
23.10.2017 08:00:00 10,4 -2,1 13 7 NNW 1015,0 10 -
23.10.2017 07:00:00 6,0 -1,0 11 6 N - 10 -
23.10.2017 06:00:00 8,0 -2,0 15 8 N - 10 -
23.10.2017 05:00:00 7,3 -1,6 5 3 NNE 1015,1 10 0,0
23.10.2017 04:00:00 8,0 -1,0 11 6 N - 10 -
23.10.2017 03:00:00 9,0 -1,0 18 10 N - 10 -
23.10.2017 02:00:00 9,0 -1,8 15 8 N 1014,2 10 -
23.10.2017 01:00:00 10,0 -2,0 9 5 N - 10 -
23.10.2017 00:00:00 11,0 -2,0 16 9 NNE - 10 -
22.10.2017 23:00:00 13,1 -3,0 24 13 NNE 1013,1 10 0,0
22.10.2017 22:00:00 12,0 -2,0 11 6 NE - 10 -
22.10.2017 21:00:00 14,0 -3,0 21 11 NNE - 10 -
22.10.2017 20:00:00 15,5 -3,9 37 20 N 1011,7 10 -
22.10.2017 19:00:00 17,0 -4,0 26 14 NNW - 10 -
22.10.2017 18:00:00 18,0 -4,0 28 15 NNW - 10 -
22.10.2017 17:00:00 18,5 8,3 13 7 WNW 1010,5 6 0,0
22.10.2017 16:00:00 18,0 13,0 8 4 W - 4,0 -
22.10.2017 15:00:00 17,0 12,0 9 5 WSW - 4,0 -
22.10.2017 14:00:00 16,9 12,6 9 5 SW 1012,1 4,0 -
22.10.2017 13:00:00 16,0 12,0 9 5 W - 3,5 -
22.10.2017 12:00:00 14,0 13,0 8 4 W - 1,5 -
22.10.2017 11:00:00 13,6 13,1 4 2 - 1014,7 0,8 0,0
22.10.2017 10:00:00 13,0 13,0 4 2 - - 0,8 -
22.10.2017 09:00:00 13,0 13,0 5 3 NNE - 0,9 -
22.10.2017 08:00:00 13,2 12,8 5 3 NNW 1015,5 1,0 -
22.10.2017 07:00:00 13,0 13,0 2 1 - - 0,7 -
22.10.2017 06:00:00 13,0 13,0 2 1 - - 0,8 -
22.10.2017 05:00:00 13,4 12,7 0 0 N 1016,8 1,0 0,0
22.10.2017 04:00:00 13,0 13,0 2 1 - - 1,0 -
22.10.2017 03:00:00 13,0 13,0 4 2 SSE - 1,3 -
22.10.2017 02:00:00 13,4 12,4 4 2 - 1018,5 1,3 -
22.10.2017 01:00:00 13,0 13,0 5 3 SSW - 1,3 -
22.10.2017 00:00:00 13,0 13,0 4 2 - - 1,5 -
21.10.2017 23:00:00 13,7 12,1 4 2 SSW 1019,5 2,0 0,0
21.10.2017 22:00:00 14,0 12,0 4 2 - - 2,0 -
21.10.2017 21:00:00 14,0 12,0 2 1 - - 2,0 -
21.10.2017 20:00:00 14,5 11,5 4 2 SSW 1020,1 2,0 -
21.10.2017 19:00:00 15,0 12,0 5 3 WSW - 2,0 -
21.10.2017 18:00:00 16,0 11,0 8 4 WSW - 2,0 -
21.10.2017 17:00:00 16,0 11,5 4 2 - 1020,1 2,0 0,0
21.10.2017 16:00:00 16,0 11,0 8 4 WSW - 2,0 -
21.10.2017 15:00:00 15,0 11,0 9 5 WSW - 2,0 -
21.10.2017 14:00:00 14,9 11,1 4 2 - 1021,5 1,8 -
21.10.2017 13:00:00 14,0 11,0 4 2 - - 1,4 -
21.10.2017 12:00:00 14,0 11,0 5 3 WNW - 1,4 -
21.10.2017 11:00:00 13,5 11,1 4 2 - 1022,6 1,4 0,0
21.10.2017 10:00:00 13,0 11,0 5 3 NNW - 1,4 -
21.10.2017 09:00:00 13,0 11,0 8 4 WNW - 1,4 -
21.10.2017 08:00:00 12,7 11,4 5 3 NNW 1021,7 1,3 -
21.10.2017 07:00:00 13,0 11,0 4 2 N - 1,3 -
21.10.2017 06:00:00 13,0 11,0 5 3 N - 1,3 -
21.10.2017 05:00:00 12,7 11,3 2 1 - 1021,9 1,5 0,0
21.10.2017 04:00:00 13,0 11,0 2 1 - - 1,5 -
21.10.2017 03:00:00 13,0 11,0 4 2 - - 1,3 -
21.10.2017 02:00:00 12,5 11,4 5 3 E 1022,5 1,3 -
21.10.2017 01:00:00 12,0 12,0 2 1 - - 1,0 -
21.10.2017 00:00:00 12,0 12,0 2 1 - - 0,9 -
20.10.2017 23:00:00 11,7 11,3 5 3 ESE 1022,7 0,7 0,0
20.10.2017 22:00:00 12,0 11,0 4 2 S - 0,6 -
20.10.2017 21:00:00 11,0 11,0 5 3 S - 0,5 -
20.10.2017 20:00:00 11,1 10,4 4 2 - 1021,5 2,1 -
20.10.2017 19:00:00 13,0 11,0 4 2 S - 2,5 -
20.10.2017 18:00:00 14,0 11,0 2 1 - - 3,0 -
20.10.2017 17:00:00 13,3 11,0 4 2 - 1020,4 2,5 0,0
20.10.2017 16:00:00 13,0 11,0 8 4 WSW - 2,0 -
20.10.2017 15:00:00 13,0 11,0 2 1 - - 1,8 -
20.10.2017 14:00:00 12,6 10,9 9 5 WSW 1021,3 1,5 -
20.10.2017 13:00:00 12,0 11,0 8 4 WSW - 1,5 -
20.10.2017 12:00:00 12,0 11,0 4 2 - - 1,5 -
20.10.2017 11:00:00 12,3 10,4 8 4 W 1021,9 2,0 0,0
20.10.2017 10:00:00 12,0 11,0 4 2 S - 1,2 -
20.10.2017 09:00:00 11,0 11,0 4 2 - - 0,7 -
20.10.2017 08:00:00 11,3 11,1 2 1 - 1020,6 0,5 -
20.10.2017 07:00:00 11,0 11,0 2 1 - - 0,2 -
20.10.2017 06:00:00 11,0 11,0 5 3 N - 0,3 -
20.10.2017 05:00:00 11,4 11,1 4 2 NE 1020,6 0,3 0,0
20.10.2017 04:00:00 12,0 11,0 4 2 - - 0,3 -
20.10.2017 03:00:00 12,0 11,0 4 2 - - 0,3 -
20.10.2017 02:00:00 11,7 11,4 9 5 E 1020,4 0,5 -
20.10.2017 01:00:00 12,0 12,0 9 5 ENE - 0,4 -
20.10.2017 00:00:00 10,0 9,0 8 4 N - 1,5 -
19.10.2017 23:00:00 10,5 9,7 4 2 NE 1020,2 1,5 0,0
19.10.2017 22:00:00 12,0 11,0 4 2 - - 2,5 -
19.10.2017 21:00:00 14,0 12,0 8 4 ESE - 3,0 -
19.10.2017 20:00:00 13,9 10,9 4 2 - 1019,0 3,0 -
19.10.2017 19:00:00 16,0 12,0 5 3 SE - 3,0 -
19.10.2017 18:00:00 17,0 12,0 8 4 S - 3,0 -
19.10.2017 17:00:00 18,4 12,0 5 3 S 1018,2 3,0 0,0
19.10.2017 16:00:00 19,0 12,0 8 4 S - 2,5 -
19.10.2017 15:00:00 19,0 12,0 8 4 S - 2,5 -
19.10.2017 14:00:00 18,0 11,9 9 5 SW 1019,2 2,5 -
19.10.2017 13:00:00 18,0 11,0 5 3 - - 2,5 -
19.10.2017 12:00:00 16,0 11,0 5 3 SE - 2,5 -
19.10.2017 11:00:00 14,8 10,8 8 4 NE 1020,3 2,5 0,0
19.10.2017 10:00:00 12,0 10,0 5 3 NNE - 3,0 -
19.10.2017 09:00:00 8,0 8,0 4 2 NE - 2,5 -
19.10.2017 08:00:00 7,8 6,9 4 2 NNE 1019,3 2,5 -
19.10.2017 07:00:00 9,0 8,0 5 3 NNE - 2,9 -
19.10.2017 06:00:00 8,0 7,0 8 4 N - 2,5 -
19.10.2017 05:00:00 8,3 7,5 11 6 N 1019,2 2,5 0,0
19.10.2017 04:00:00 10,0 9,0 9 5 N - 2,9 -
19.10.2017 03:00:00 - - - - - - - -
19.10.2017 02:00:00 10,0 9,1 5 3 NE 1019,8 2,5 -
19.10.2017 01:00:00 9,0 8,0 5 3 NNE - 4,0 -
19.10.2017 00:00:00 10,0 8,0 9 5 NNE - 4,0 -
18.10.2017 23:00:00 11,7 9,8 8 4 N 1020,1 4,0 0,0
18.10.2017 22:00:00 12,0 10,0 2 1 - - 4,5 -
18.10.2017 21:00:00 11,0 9,0 8 4 NNE - 5 -
18.10.2017 20:00:00 13,6 9,9 4 2 NNE 1018,9 5 -
18.10.2017 19:00:00 17,0 11,0 8 4 SSW - 4,0 -
18.10.2017 18:00:00 20,0 11,0 8 4 SSW - 5 -
18.10.2017 17:00:00 20,6 10,5 5 3 SSW 1018,4 5 0,0
18.10.2017 16:00:00 21,0 10,0 5 3 S - 5 -
18.10.2017 15:00:00 20,0 10,0 5 3 ESE - 5 -
18.10.2017 14:00:00 20,1 11,5 5 3 - 1020,0 5 -
18.10.2017 13:00:00 19,0 12,0 5 3 WSW - 5 -
18.10.2017 12:00:00 18,0 11,0 4 2 - - 7 -
18.10.2017 11:00:00 15,9 10,4 5 3 NNE 1021,4 10 0,0
18.10.2017 10:00:00 13,0 10,0 8 4 N - 10 -
18.10.2017 09:00:00 9,0 8,0 8 4 NNE - 10 -
18.10.2017 08:00:00 7,3 6,6 8 4 N 1021,2 10 -
18.10.2017 07:00:00 9,0 8,0 8 4 N - 8 -
18.10.2017 06:00:00 8,0 6,0 8 4 N - 6 -

tt = Température de l'air
td = dewpoint
ff = Vitesse du vent
dd = Direction du vent
ppp = reduced air pressure
vv = visibility
rr = Quantités de précipitations

stations d'obs. à proximité